Asheboro, NC

12:09 AM EDT on August 24, 2016 (GMT -0400)
Asheboro Municipal

Weather History for KHBI - September, 2013

Change the Weather History Date:

Wednesday, September 18, 2013

  Actual Average Record
Temperature  
Mean Temperature 61 °F -  
Max Temperature 71 °F 81 °F 95 °F (1954)
Min Temperature 51 °F 61 °F 47 °F (1990)
Degree Days  
Heating Degree Days 4    
Growing Degree Days 11 (Base 50)    
Moisture  
Dew Point 51 °F    
Average Humidity 72    
Maximum Humidity 97    
Minimum Humidity 47    
Precipitation  
Precipitation 0.00 in - - ()
Sea Level Pressure  
Sea Level Pressure 30.29 in    
Wind  
Wind Speed 2 mph (NNE)    
Max Wind Speed 8 mph    
Max Gust Speed -    
Visibility 10 miles    
Events      
Averages and records for this station are not official NWS values.
T = Trace of Precipitation, MM = Missing Value Source: NWS Daily Summary

Daily Weather History Graph

Daily Weather History Graph

Search for Another Location

Airport or City:

Trip Planner

Search our weather history database for the weather conditions in past years. The results will help you decide how hot, cold, wet, or windy it might be!

Date:

Astronomy

Sep. 18, 2013 Rise Set
Actual Time 7:04 AM EDT 7:21 PM EDT
Civil Twilight 6:39 AM EDT 7:47 PM EDT
Nautical Twilight 6:09 AM EDT 8:17 PM EDT
Astronomical Twilight 5:38 AM EDT 8:47 PM EDT
Moon 6:44 PM EDT (9/18) 6:05 AM EDT (9/18)
Length of Visible Light 13h 08m
Length of Day
12h 17m
Waxing Gibbous, 99% of the Moon is Illuminated
Sep 18
Waxing Gibbous
Sep 19
Full
Sep 26
Last Quarter
Oct 4
New
Oct 11
First Quarter

Hourly Weather History & Observations

Time (EDT) Temp. Dew Point Humidity Pressure Visibility Wind Dir Wind Speed Gust Speed Precip Events Conditions
12:15 AM 60.4 °F 50.9 °F 71% 30.32 in 10.0 mi ENE 3.5 mph - N/A   Clear
12:35 AM 59.9 °F 51.1 °F 73% 30.32 in 10.0 mi East 3.5 mph - N/A   Clear
12:55 AM 59.2 °F 51.1 °F 74% 30.32 in 10.0 mi ENE 4.6 mph - N/A   Clear
1:15 AM 58.6 °F 51.1 °F 76% 30.32 in 10.0 mi Calm Calm - N/A   Clear
1:35 AM 58.3 °F 50.9 °F 76% 30.32 in 10.0 mi Calm Calm - N/A   Clear
1:55 AM 57.9 °F 50.7 °F 77% 30.32 in 10.0 mi Calm Calm - N/A   Clear
2:15 AM 57.4 °F 50.5 °F 78% 30.32 in 10.0 mi Calm Calm - N/A   Clear
2:35 AM 57.2 °F 50.9 °F 79% 30.32 in 10.0 mi Calm Calm - N/A   Clear
2:55 AM 56.3 °F 50.9 °F 82% 30.32 in 10.0 mi Calm Calm - N/A   Clear
3:15 AM 55.8 °F 50.9 °F 84% 30.32 in 10.0 mi Calm Calm - N/A   Clear
3:35 AM 55.4 °F 50.9 °F 85% 30.31 in 10.0 mi Calm Calm - N/A   Clear
3:55 AM 55.0 °F 50.9 °F 86% 30.31 in 10.0 mi Calm Calm - N/A   Clear
4:15 AM 54.7 °F 50.9 °F 87% 30.30 in 10.0 mi Calm Calm - N/A   Clear
4:35 AM 54.7 °F 50.9 °F 87% 30.30 in 10.0 mi Calm Calm - N/A   Clear
4:55 AM 54.5 °F 50.5 °F 86% 30.30 in 10.0 mi Calm Calm - N/A   Clear
5:15 AM 54.3 °F 50.0 °F 85% 30.31 in 10.0 mi Calm Calm - N/A   Clear
5:35 AM 52.9 °F 50.2 °F 91% 30.32 in 10.0 mi Calm Calm - N/A   Clear
5:55 AM 51.8 °F 50.2 °F 94% 30.33 in 10.0 mi Calm Calm - N/A   Clear
6:15 AM 51.4 °F 50.4 °F 96% 30.33 in 10.0 mi Calm Calm - N/A   Scattered Clouds
6:35 AM 51.6 °F 50.7 °F 97% 30.32 in 10.0 mi Calm Calm - N/A   Overcast
6:55 AM 52.0 °F 50.9 °F 96% 30.33 in 10.0 mi Calm Calm - N/A   Overcast
7:15 AM 52.3 °F 50.9 °F 95% 30.33 in 10.0 mi Calm Calm - N/A   Overcast
7:35 AM 52.7 °F 51.4 °F 95% 30.34 in 10.0 mi Calm Calm - N/A   Overcast
7:55 AM 52.9 °F 51.8 °F 96% 30.34 in 10.0 mi Calm Calm - N/A   Overcast
8:15 AM 53.4 °F 51.8 °F 94% 30.34 in 10.0 mi Calm Calm - N/A   Overcast
8:35 AM 54.5 °F 51.8 °F 91% 30.34 in 10.0 mi Calm Calm - N/A   Overcast
8:55 AM 55.4 °F 51.6 °F 87% 30.34 in 10.0 mi Calm Calm - N/A   Overcast
9:15 AM 56.3 °F 51.4 °F 84% 30.35 in 10.0 mi North 3.5 mph - N/A   Overcast
9:35 AM 57.2 °F 50.9 °F 79% 30.35 in 10.0 mi North 5.8 mph - N/A   Overcast
9:55 AM 57.7 °F 50.0 °F 75% 30.36 in 10.0 mi North 4.6 mph - N/A   Overcast
10:15 AM 58.8 °F 49.5 °F 71% 30.35 in 10.0 mi North 4.6 mph - N/A   Overcast
10:35 AM 59.9 °F 50.2 °F 70% 30.35 in 10.0 mi NNW 3.5 mph - N/A   Overcast
10:55 AM 61.3 °F 48.6 °F 63% 30.34 in 10.0 mi North 8.1 mph - N/A   Mostly Cloudy
11:15 AM 62.8 °F 48.0 °F 59% 30.34 in 10.0 mi NE 8.1 mph - N/A   Mostly Cloudy
11:35 AM 64.0 °F 48.0 °F 56% 30.33 in 10.0 mi NNE 4.6 mph - N/A   Mostly Cloudy
11:55 AM 64.4 °F 48.2 °F 56% 30.32 in 10.0 mi NNE 4.6 mph - N/A   Mostly Cloudy
12:15 PM 65.3 °F 48.9 °F 55% 30.32 in 10.0 mi NE 3.5 mph - N/A   Scattered Clouds
12:35 PM 65.8 °F 49.1 °F 55% 30.31 in 10.0 mi East 5.8 mph - N/A   Clear
12:55 PM 67.6 °F 50.4 °F 54% 30.30 in 10.0 mi NNE 3.5 mph - N/A   Clear
1:15 PM 67.1 °F 49.3 °F 53% 30.30 in 10.0 mi NE 3.5 mph - N/A   Clear
1:35 PM 68.2 °F 50.0 °F 52% 30.29 in 10.0 mi NW 4.6 mph - N/A   Clear
1:55 PM 68.0 °F 50.2 °F 53% 30.28 in 10.0 mi North 4.6 mph - N/A   Clear
2:15 PM 68.7 °F 51.1 °F 53% 30.27 in 10.0 mi NNE 3.5 mph - N/A   Scattered Clouds
2:35 PM 68.5 °F 50.9 °F 53% 30.27 in 10.0 mi Calm Calm - N/A   Scattered Clouds
2:55 PM 69.3 °F 50.2 °F 51% 30.26 in 10.0 mi Calm Calm - N/A   Scattered Clouds
3:15 PM 69.8 °F 51.1 °F 51% 30.25 in 10.0 mi West 4.6 mph - N/A   Scattered Clouds
3:35 PM 70.9 °F 50.9 °F 49% 30.24 in 10.0 mi NNE 3.5 mph - N/A   Clear
3:55 PM 70.3 °F 50.9 °F 50% 30.24 in 10.0 mi Calm Calm - N/A   Clear
4:15 PM 70.9 °F 51.4 °F 50% 30.23 in 10.0 mi NW 3.5 mph - N/A   Clear
4:35 PM 71.4 °F 50.4 °F 47% 30.23 in 10.0 mi NNE 5.8 mph - N/A   Clear
4:55 PM 70.5 °F 50.2 °F 48% 30.22 in 10.0 mi Calm Calm - N/A   Clear
5:15 PM 70.9 °F 51.4 °F 50% 30.22 in 10.0 mi North 3.5 mph - N/A   Clear
5:35 PM 71.1 °F 50.7 °F 49% 30.22 in 10.0 mi NNE 3.5 mph - N/A   Clear
5:55 PM 70.2 °F 52.3 °F 53% 30.22 in 10.0 mi Calm Calm - N/A   Clear
6:15 PM 70.3 °F 53.6 °F 55% 30.22 in 10.0 mi Calm Calm - N/A   Clear
6:35 PM 70.0 °F 53.2 °F 55% 30.22 in 10.0 mi Calm Calm - N/A   Clear
6:55 PM 68.9 °F 54.3 °F 60% 30.22 in 10.0 mi Calm Calm - N/A   Clear
7:15 PM 66.2 °F 56.5 °F 71% 30.22 in 10.0 mi Calm Calm - N/A   Clear
7:35 PM 63.5 °F 56.3 °F 77% 30.22 in 10.0 mi Calm Calm - N/A   Clear
7:55 PM 62.1 °F 55.8 °F 80% 30.22 in 10.0 mi Calm Calm - N/A   Clear
8:15 PM 60.8 °F 55.4 °F 82% 30.23 in 10.0 mi Calm Calm - N/A   Clear
8:35 PM 60.4 °F 55.6 °F 84% 30.23 in 10.0 mi Calm Calm - N/A   Clear
8:55 PM 59.9 °F 54.9 °F 83% 30.24 in 10.0 mi Calm Calm - N/A   Clear
9:15 PM 59.7 °F 54.1 °F 82% 30.24 in 10.0 mi Calm Calm - N/A   Clear
9:35 PM 59.4 °F 54.5 °F 84% 30.24 in 10.0 mi Calm Calm - N/A   Clear
9:55 PM 58.6 °F 53.6 °F 83% 30.25 in 10.0 mi Calm Calm - N/A   Clear
10:15 PM 58.3 °F 54.0 °F 86% 30.25 in 10.0 mi Calm Calm - N/A   Clear
10:35 PM 57.2 °F 53.8 °F 88% 30.25 in 10.0 mi Calm Calm - N/A   Clear
10:55 PM 58.8 °F 52.9 °F 81% 30.24 in 10.0 mi Calm Calm - N/A   Clear
11:15 PM 59.0 °F 51.1 °F 75% 30.24 in 10.0 mi Calm Calm - N/A   Clear
11:35 PM 59.7 °F 49.3 °F 68% 30.23 in 10.0 mi Calm Calm - N/A   Clear
11:55 PM 59.9 °F 49.5 °F 68% 30.22 in 10.0 mi Calm Calm - N/A   Clear